sat.trackr.live / text

‹ back to catalog

STARLINK-34428

NORAD 64293 · 2025-123C

PAYLOAD ACTIVE UNKNOWN

§ Identity

Operator
Country
US
Launch date
2025-06-08
Launch site
AFWTR
Launch vehicle
Mass (kg)
RCS (m²)

Purposes: comms

External: N2YO · Heavens-Above · Gunter

§ Orbital elements

Epoch: 2026-05-25T00:15:58.643424Z

Period
96.11 min
Inclination
70.0017°
Eccentricity
0.0002359
Mean motion
14.98335887 rev/d
Perigee alt
570.4 km
Apogee alt
573.7 km
Semi-major
6,950.2 km
B*
2.7155e-4
RAAN
1.9102°
Arg perigee
270.5321°
Mean anomaly
89.5568°
Rev number
5,427

§ Raw data

STARLINK-344281 64293U 25123C   26145.01109541  .00003149  00000+0  27155-3 0  99952 64293  70.0017   1.9102 0002359 270.5321  89.5568 14.98335887 54278

JSON: /api/v1/satellites/64293 · /tle

For live sub-satellite position, see the globe view (requires WebGL).

§ Visibility from observer

Set your observer location to see the next 7 days of passes ≥ 10°. The values pass through the URL so the page stays shareable.

No JS? Fill the form by hand. The geolocation button needs JavaScript.